This is the latest recevied weather packets stored in our database for station/object JA0ZJX-13. If no packets are shown the sender has not sent any weather packets the latest 10 day(s).
| Time | Temp. | Humidity | Pressure | Rain* | Wind** | Luminosity | Snow |
|---|---|---|---|---|---|---|---|
| 1777941821 | 13.33° C | 47% | 1021.5 hPa | 0 mm | - | 868 W/m² | - |
| 1777941211 | 12.78° C | 47% | 1021.6 hPa | 0 mm | - | 846 W/m² | - |
| 1777940620 | 12.22° C | 47% | 1021.5 hPa | 0 mm | - | 823 W/m² | - |
| 1777940014 | 12.22° C | 49% | 1021.5 hPa | 0 mm | - | 798 W/m² | - |
| 1777939423 | 12.22° C | 50% | 1021.5 hPa | 0 mm | - | 772 W/m² | - |
| 1777938813 | 11.67° C | 52% | 1021.4 hPa | 0 mm | - | 740 W/m² | - |
| 1777938207 | 11.11° C | 55% | 1021.2 hPa | 0 mm | - | 67 W/m² | - |
| 1777937617 | 11.11° C | 56% | 1021.2 hPa | 0 mm | - | 686 W/m² | - |
| 1777937006 | 10.56° C | 59% | 1021.3 hPa | 0 mm | - | 654 W/m² | - |
| 1777936415 | 10.56° C | 61% | 1021.2 hPa | 0 mm | - | 624 W/m² | - |
| 1777935807 | 10.56° C | 61% | 1021.1 hPa | 0 mm | - | 591 W/m² | - |
| 1777935214 | 10° C | 64% | 1021.1 hPa | 0 mm | - | 557 W/m² | - |
| 1777934623 | 10° C | 66% | 1021 hPa | 0 mm | - | 526 W/m² | - |
| 1777934010 | 9.44° C | 69% | 1021 hPa | 0 mm | - | 490 W/m² | - |
| 1777933422 | 8.89° C | 70% | 1020.8 hPa | 0 mm | - | 455 W/m² | - |
| 1777932811 | 8.89° C | 71% | 1020.7 hPa | 0 mm | - | 418 W/m² | - |
| 1777932221 | 8.33° C | 72% | 1020.8 hPa | 0 mm | - | 385 W/m² | - |
| 1777931610 | 7.78° C | 74% | 1020.7 hPa | 0 mm | - | 348 W/m² | - |
| 1777931024 | 7.22° C | 75% | 1020.6 hPa | 0 mm | - | 311 W/m² | - |
| 1777930412 | 7.22° C | 78% | 1020.5 hPa | 0 mm | - | 276 W/m² | - |
| 1777929822 | 6.67° C | 80% | 1020.3 hPa | 0 mm | - | 243 W/m² | - |
| 1777929214 | 5.56° C | 80% | 1020.1 hPa | 0 mm | - | 202 W/m² | - |
| 1777928623 | 5.56° C | 81% | 1019.9 hPa | 0 mm | - | 165 W/m² | - |
| 1777928011 | 5° C | 82% | 1019.6 hPa | 0 mm | - | 125 W/m² | - |
| 1777927421 | 4.44° C | 83% | 1019.5 hPa | 0 mm | - | 88 W/m² | - |
* Rain latest hour (hover to see other rain measurements)
** Current wind speed in m/s (hover to see current wind gust speed)